Hourly Data Report for August 23, 2021

KUGLUKTUK A
NUNAVUT
Current Station Operator: NAVCAN

67°49'00.000" N
115°08'38.000" W
22.60 m
2300903
71938
YCO

Download Data

Hourly Data (August 2021)
Hourly Data Report for August 23, 2021
TIME
LST
Temp Definition
°C
Dew Point Definition
°C
Rel Hum Definition
%
Precip. Amount Definition
mm

Wind Dir Definition
10's deg

Wind Spd Definition
km/h
Visibility Definition
km
Stn Press Definition
kPa
Hmdx Definition


Wind Chill Definition


Weather Definition


00:00 9.0 2.5 64   19 19 24.1 101.02     LegendNANA
01:00 9.1 3.1 66   20 14 24.1 100.99     LegendNANA
02:00 10.1 3.4 63   19 19 24.1 100.96     Cloudy
03:00 8.9 3.5 69   33 5 24.1 100.93     LegendNANA
04:00 9.4 2.9 64   26 17 24.1 100.93     LegendNANA
05:00 7.8 3.5 74   20 10 24.1 100.92     Mostly Cloudy
06:00 9.4 4.5 71   20 16 24.1 100.91     LegendNANA
07:00 10.8 5.2 68   19 18 24.1 100.87     LegendNANA
08:00 10.8 5.4 69   20 17 24.1 100.84     Cloudy
09:00 12.4 6.0 65   22 16 24.1 100.82     LegendNANA
10:00 13.3 6.3 62   22 23 24.1 100.82     LegendNANA
11:00 14.8 6.6 57   21 19 24.1 100.79     Mostly Cloudy
12:00 14.6 6.8 59   22 22 24.1 100.76     LegendNANA
13:00 14.8 7.0 59   21 18 24.1 100.74     LegendNANA
14:00 15.9 5.9 51   24 23 24.1 100.72     Mostly Cloudy
15:00 16.0 5.8 50   26 19 24.1 100.71     LegendNANA
16:00 12.7 8.7 76   2 21 24.1 100.72     LegendNANA
17:00 12.3 8.6 78   4 17 24.1 100.74     Mostly Cloudy
18:00 11.7 8.0 78   5 13 24.1 100.76     LegendNANA
19:00 10.8 7.5 80   9 10 24.1 100.77     LegendNANA
20:00 9.2 7.2 87   9 10 24.1 100.78     Mostly Cloudy
21:00 8.5 6.9 90   10 12 24.1 100.80     LegendNANA
22:00 7.5 6.3 92   16 7 24.1 100.82     LegendNANA
23:00 6.3 5.7 96   16 10 24.1 100.79     Mainly Clear

Notes on Data Quality.

Legend

  • E = Estimated
  • M = Missing
  • NA = Not Available*
  • [empty] = Indicates an unobserved value
Date modified: